GFSNW_500_temp_162.txt.gz
Temp
-24 -23 -23 -24 -24 -23 -23 -23 -23 -22 -22 -22 -21 -20 -21 -22 -20 -20 -20 -21 -21 -20 -21 -20 -20 -19 -20 -19 -19 -20 -20 -19 -19 -20 -20 -21 -21 -20 -20 -21 -20 -21 -21 -19
-25 -24 -24 -24 -23 -24 -24 -24 -23 -22 -23 -22 -21 -21 -22 -22 -20 -20 -21 -21 -21 -21 -21 -21 -20 -20 -21 -21 -20 -20 -20 -20 -20 -20 -20 -21 -21 -20 -20 -21 -23 -21 -22 -19
-25 -25 -24 -24 -24 -24 -24 -24 -24 -23 -23 -23 -22 -22 -22 -22 -21 -22 -22 -22 -22 -22 -21 -22 -21 -21 -21 -21 -21 -20 -21 -21 -21 -21 -21 -22 -21 -21 -21 -22 -22 -21 -22 -22
-26 -25 -25 -24 -24 -24 -24 -24 -24 -23 -23 -22 -23 -23 -23 -22 -22 -22 -23 -22 -22 -22 -23 -23 -23 -22 -22 -21 -21 -21 -21 -21 -22 -21 -21 -21 -21 -20 -21 -21 -22 -23 -21 -23
-27 -26 -25 -25 -25 -25 -24 -24 -24 -24 -23 -23 -23 -24 -23 -23 -23 -22 -23 -23 -23 -24 -24 -24 -23 -22 -22 -22 -21 -21 -21 -21 -22 -20 -21 -21 -21 -21 -21 -21 -23 -23 -24 -22
-27 -27 -25 -25 -25 -25 -24 -24 -25 -24 -24 -24 -24 -23 -23 -23 -23 -23 -23 -23 -25 -24 -24 -23 -23 -23 -22 -22 -22 -21 -22 -22 -22 -20 -22 -21 -20 -21 -22 -22 -23 -23 -23 -23
-28 -27 -26 -25 -26 -25 -25 -25 -25 -25 -25 -24 -24 -24 -24 -24 -24 -24 -25 -25 -25 -25 -23 -23 -23 -23 -22 -22 -22 -22 -22 -22 -22 -21 -21 -21 -21 -22 -22 -22 -22 -23 -23 -22
-28 -28 -26 -26 -26 -25 -25 -25 -25 -25 -25 -25 -24 -24 -24 -24 -25 -25 -25 -25 -24 -24 -23 -23 -23 -23 -22 -22 -22 -22 -21 -21 -22 -21 -22 -21 -22 -23 -23 -23 -23 -23 -23 -22
-28 -28 -27 -26 -26 -26 -25 -25 -26 -26 -25 -25 -25 -25 -25 -25 -25 -25 -25 -25 -25 -24 -24 -23 -23 -22 -22 -22 -21 -21 -22 -22 -22 -22 -22 -22 -22 -22 -23 -23 -23 -23 -23 -23
-28 -27 -27 -26 -26 -26 -25 -26 -26 -26 -26 -26 -26 -26 -25 -25 -25 -25 -25 -25 -24 -24 -23 -23 -23 -23 -23 -22 -23 -23 -23 -23 -23 -23 -23 -23 -23 -23 -22 -23 -23 -23 -23 -23
-27 -27 -27 -26 -26 -26 -26 -26 -26 -26 -26 -26 -26 -26 -25 -25 -25 -25 -25 -25 -24 -24 -23 -23 -23 -23 -23 -23 -23 -23 -23 -23 -23 -23 -23 -23 -23 -23 -22 -23 -23 -23 -23 -23
-27 -27 -27 -26 -26 -26 -26 -26 -26 -26 -27 -26 -26 -25 -26 -26 -25 -25 -25 -25 -25 -24 -24 -24 -23 -23 -23 -23 -23 -23 -23 -23 -23 -23 -23 -23 -22 -23 -22 -22 -23 -23 -23 -23
-27 -26 -26 -26 -26 -26 -26 -26 -26 -26 -27 -26 -26 -26 -26 -26 -25 -25 -25 -25 -24 -24 -24 -24 -24 -23 -23 -23 -23 -23 -23 -23 -23 -23 -23 -23 -23 -22 -23 -23 -23 -23 -23 -23
-27 -27 -26 -26 -26 -26 -26 -26 -27 -27 -27 -27 -26 -26 -26 -26 -26 -25 -25 -25 -25 -25 -24 -24 -24 -24 -24 -23 -23 -23 -23 -22 -23 -23 -23 -23 -23 -23 -23 -23 -23 -23 -23 -24
-27 -27 -26 -27 -26 -26 -26 -27 -27 -28 -27 -27 -26 -26 -26 -26 -26 -25 -25 -25 -25 -25 -25 -24 -24 -24 -24 -23 -23 -23 -24 -23 -23 -23 -23 -23 -23 -23 -23 -23 -23 -23 -23 -24
-27 -27 -27 -27 -27 -27 -27 -27 -27 -27 -27 -27 -27 -26 -26 -26 -26 -25 -25 -25 -25 -25 -25 -25 -24 -24 -24 -24 -23 -23 -23 -23 -23 -23 -23 -23 -23 -23 -23 -23 -23 -23 -23 -24
-27 -27 -27 -27 -27 -27 -27 -27 -27 -27 -27 -27 -27 -27 -27 -26 -26 -26 -26 -26 -25 -25 -25 -24 -24 -24 -24 -23 -23 -24 -23 -24 -23 -23 -23 -23 -23 -23 -23 -23 -23 -24 -24 -24
-27 -27 -27 -27 -27 -27 -27 -27 -27 -27 -27 -27 -27 -27 -27 -27 -26 -26 -26 -26 -26 -25 -24 -24 -24 -24 -24 -23 -24 -24 -23 -24 -24 -24 -24 -24 -23 -23 -23 -24 -24 -24 -24 -24
-27 -27 -27 -27 -27 -27 -27 -27 -27 -27 -27 -27 -27 -27 -27 -26 -26 -26 -26 -25 -25 -24 -24 -24 -24 -24 -24 -24 -24 -24 -24 -24 -24 -24 -24 -24 -24 -23 -24 -24 -24 -24 -24 -24
-27 -27 -27 -27 -27 -27 -27 -27 -27 -27 -27 -26 -27 -27 -27 -26 -26 -26 -25 -25 -25 -25 -25 -25 -24 -24 -24 -24 -24 -24 -24 -24 -24 -24 -24 -24 -24 -24 -24 -24 -24 -24 -24 -24
-27 -27 -27 -27 -27 -27 -28 -27 -27 -27 -26 -27 -27 -27 -27 -26 -26 -25 -25 -25 -25 -25 -25 -25 -24 -24 -24 -24 -24 -24 -24 -24 -24 -24 -24 -24 -24 -24 -24 -24 -24 -24 -24 -24
-27 -27 -28 -28 -27 -28 -28 -27 -27 -27 -27 -27 -27 -27 -26 -26 -26 -26 -26 -25 -25 -25 -25 -25 -25 -24 -24 -24 -24 -24 -24 -24 -24 -24 -24 -24 -24 -24 -24 -24 -24 -24 -24 -24
-29 -29 -28 -28 -28 -28 -28 -28 -27 -27 -27 -27 -27 -26 -26 -26 -26 -25 -25 -25 -25 -25 -25 -25 -25 -25 -24 -24 -24 -24 -24 -24 -25 -25 -24 -24 -24 -24 -24 -24 -24 -24 -24 -24
-29 -29 -29 -28 -28 -28 -28 -27 -27 -27 -26 -26 -26 -26 -26 -26 -25 -25 -25 -25 -25 -25 -25 -25 -25 -25 -24 -24 -24 -25 -25 -25 -25 -24 -24 -24 -24 -24 -24 -24 -24 -24 -24 -24
-29 -29 -28 -28 -28 -28 -28 -27 -27 -27 -26 -26 -26 -26 -26 -25 -25 -25 -25 -25 -25 -25 -25 -25 -25 -25 -25 -25 -25 -25 -25 -25 -25 -25 -24 -24 -24 -24 -24 -24 -24 -24 -25 -25
-29 -28 -28 -28 -28 -27 -27 -27 -27 -26 -26 -26 -26 -26 -25 -25 -25 -25 -25 -25 -25 -25 -25 -25 -25 -25 -25 -25 -25 -25 -25 -25 -25 -25 -25 -25 -24 -24 -24 -24 -24 -24 -25 -25
-28 -28 -28 -28 -27 -27 -27 -27 -27 -26 -26 -26 -26 -26 -25 -25 -25 -25 -26 -26 -26 -26 -26 -25 -26 -25 -25 -26 -25 -25 -25 -25 -25 -25 -25 -25 -25 -25 -25 -25 -25 -25 -26 -26

GFSNW_500_temp_165.txt.gz
Temp
-24 -24 -23 -23 -23 -24 -23 -23 -23 -22 -23 -23 -22 -21 -20 -21 -22 -20 -20 -20 -21 -20 -21 -21 -21 -20 -19 -19 -19 -19 -19 -19 -18 -19 -20 -20 -20 -20 -20 -21 -21 -21 -21 -20
-25 -25 -24 -24 -24 -24 -24 -24 -24 -24 -24 -23 -22 -22 -22 -22 -23 -21 -21 -22 -22 -21 -21 -22 -21 -21 -21 -20 -20 -19 -20 -20 -19 -19 -20 -21 -21 -20 -20 -21 -21 -20 -21 -19
-25 -25 -25 -25 -25 -24 -24 -24 -24 -24 -24 -23 -23 -23 -23 -23 -23 -22 -21 -22 -22 -22 -22 -22 -21 -21 -21 -22 -20 -20 -20 -21 -21 -20 -20 -21 -21 -20 -20 -21 -21 -21 -20 -21
-26 -26 -26 -25 -25 -24 -25 -25 -25 -24 -24 -23 -24 -24 -24 -23 -23 -23 -23 -22 -23 -23 -23 -23 -21 -22 -22 -22 -21 -21 -21 -21 -21 -21 -21 -21 -21 -20 -21 -21 -21 -22 -21 -21
-27 -26 -26 -26 -26 -26 -25 -25 -25 -25 -24 -25 -24 -24 -24 -24 -24 -23 -23 -23 -23 -23 -23 -23 -23 -22 -21 -21 -22 -22 -22 -22 -22 -21 -21 -21 -20 -20 -20 -21 -21 -21 -21 -21
-27 -27 -27 -26 -26 -26 -25 -25 -25 -25 -25 -24 -25 -24 -24 -24 -24 -24 -23 -24 -23 -24 -23 -23 -22 -22 -23 -23 -23 -23 -22 -22 -22 -20 -22 -21 -20 -20 -21 -21 -21 -22 -22 -22
-28 -28 -27 -27 -27 -26 -26 -25 -25 -25 -25 -24 -24 -25 -25 -24 -24 -24 -24 -25 -24 -24 -23 -22 -23 -23 -24 -24 -23 -23 -22 -22 -22 -21 -21 -21 -20 -21 -22 -21 -21 -22 -23 -23
-29 -28 -28 -28 -28 -27 -26 -26 -26 -25 -25 -24 -25 -25 -25 -25 -25 -24 -25 -25 -24 -24 -23 -24 -24 -24 -24 -23 -23 -23 -22 -23 -22 -22 -22 -21 -21 -22 -22 -21 -21 -23 -23 -23
-29 -29 -29 -28 -28 -28 -27 -26 -26 -26 -26 -25 -25 -25 -25 -25 -25 -24 -24 -24 -24 -25 -24 -25 -24 -24 -24 -23 -23 -23 -23 -23 -22 -22 -21 -21 -22 -23 -23 -22 -22 -22 -22 -23
-29 -29 -29 -29 -28 -28 -27 -26 -26 -26 -26 -26 -26 -25 -25 -25 -25 -24 -25 -25 -25 -25 -24 -24 -24 -23 -24 -23 -23 -23 -22 -23 -22 -23 -23 -22 -23 -23 -23 -23 -23 -23 -23 -23
-29 -29 -29 -29 -28 -28 -27 -27 -26 -26 -26 -26 -26 -25 -25 -25 -25 -25 -25 -26 -25 -24 -24 -24 -24 -24 -24 -23 -23 -23 -23 -23 -23 -23 -23 -22 -23 -24 -23 -23 -23 -23 -23 -23
-31 -29 -29 -29 -28 -28 -27 -27 -27 -26 -26 -26 -26 -26 -26 -26 -26 -26 -26 -25 -26 -25 -25 -24 -24 -24 -24 -23 -23 -23 -23 -23 -23 -23 -23 -23 -23 -23 -23 -23 -23 -23 -23 -23
-32 -29 -28 -28 -28 -28 -27 -27 -27 -27 -26 -26 -26 -27 -27 -26 -26 -26 -26 -26 -26 -26 -25 -25 -24 -24 -24 -24 -24 -23 -23 -23 -23 -23 -23 -23 -23 -23 -23 -23 -23 -23 -23 -23
-31 -28 -28 -28 -28 -28 -27 -27 -27 -27 -26 -26 -26 -26 -27 -27 -26 -26 -26 -26 -26 -26 -26 -25 -24 -24 -24 -24 -24 -24 -24 -23 -23 -23 -23 -23 -23 -23 -23 -23 -23 -23 -23 -23
-29 -28 -28 -28 -27 -27 -27 -27 -27 -27 -26 -26 -26 -27 -27 -27 -26 -26 -26 -26 -26 -26 -25 -25 -24 -24 -24 -24 -24 -23 -24 -24 -24 -23 -23 -23 -24 -23 -23 -22 -23 -23 -23 -23
-28 -28 -28 -28 -27 -27 -27 -27 -27 -26 -26 -26 -26 -27 -27 -27 -27 -26 -26 -26 -26 -25 -25 -25 -25 -25 -25 -24 -23 -24 -24 -24 -24 -23 -23 -23 -23 -23 -23 -23 -23 -23 -23 -23
-28 -28 -27 -27 -27 -27 -27 -26 -27 -26 -26 -27 -27 -27 -27 -27 -27 -26 -26 -26 -26 -26 -25 -25 -25 -25 -25 -24 -23 -24 -24 -24 -24 -23 -23 -23 -23 -23 -23 -23 -23 -23 -23 -23
-28 -27 -27 -27 -27 -27 -27 -27 -27 -27 -27 -27 -27 -27 -27 -27 -27 -27 -26 -26 -26 -25 -25 -25 -25 -25 -25 -24 -24 -24 -23 -24 -24 -23 -23 -23 -23 -23 -23 -23 -23 -23 -23 -24
-27 -27 -27 -27 -27 -27 -26 -27 -27 -27 -27 -26 -26 -27 -27 -27 -27 -27 -26 -26 -26 -26 -25 -25 -25 -25 -24 -24 -24 -24 -24 -24 -24 -24 -24 -24 -24 -24 -24 -24 -24 -24 -24 -24
-27 -27 -27 -27 -27 -27 -26 -26 -26 -26 -26 -26 -27 -27 -27 -27 -27 -27 -27 -27 -26 -26 -26 -26 -25 -24 -25 -24 -24 -24 -24 -24 -24 -24 -24 -24 -24 -24 -24 -24 -24 -24 -24 -24
-27 -27 -27 -27 -27 -26 -26 -26 -26 -26 -26 -27 -27 -27 -27 -27 -27 -27 -26 -26 -26 -25 -25 -25 -25 -25 -25 -24 -24 -24 -24 -24 -24 -24 -24 -24 -25 -25 -25 -25 -25 -25 -25 -24
-28 -27 -27 -27 -27 -26 -26 -26 -26 -27 -27 -27 -27 -27 -27 -27 -27 -27 -26 -26 -26 -26 -25 -25 -25 -25 -25 -25 -25 -25 -24 -24 -24 -24 -24 -25 -25 -25 -25 -25 -25 -25 -24 -24
-27 -27 -27 -27 -27 -26 -26 -27 -27 -27 -27 -27 -28 -27 -27 -27 -27 -26 -26 -26 -25 -26 -26 -25 -25 -25 -25 -25 -25 -25 -24 -24 -24 -25 -25 -25 -25 -25 -25 -25 -25 -25 -24 -24
-27 -27 -27 -27 -26 -26 -27 -27 -28 -27 -27 -27 -27 -27 -27 -27 -26 -26 -26 -26 -26 -26 -25 -25 -25 -25 -25 -25 -25 -24 -24 -25 -25 -25 -25 -25 -25 -25 -25 -25 -25 -24 -24 -24
-28 -28 -28 -28 -28 -28 -28 -28 -27 -27 -27 -27 -27 -26 -26 -26 -26 -26 -26 -26 -25 -25 -25 -25 -25 -25 -25 -25 -24 -24 -25 -25 -25 -25 -25 -25 -25 -25 -25 -24 -24 -24 -24 -24
-29 -28 -29 -29 -28 -28 -28 -28 -27 -27 -27 -27 -27 -27 -26 -26 -26 -26 -26 -26 -25 -25 -25 -25 -25 -25 -25 -25 -25 -25 -25 -25 -25 -25 -25 -25 -25 -25 -25 -25 -25 -25 -25 -25
-29 -29 -29 -28 -28 -28 -28 -27 -27 -27 -27 -27 -27 -26 -26 -26 -26 -26 -26 -26 -26 -26 -26 -25 -26 -25 -25 -25 -25 -25 -25 -25 -25 -25 -25 -25 -25 -25 -25 -25 -25 -25 -25 -25

GFSNW_500_temp_168.txt.gz
Temp
-21 -21 -21 -21 -22 -22 -22 -21 -21 -22 -22 -22 -21 -20 -21 -21 -21 -22 -21 -20 -21 -21 -20 -20 -21 -20 -21 -20 -19 -19 -19 -19 -18 -19 -20 -21 -20 -20 -21 -21 -20 -20 -19 -16
-23 -23 -23 -23 -23 -23 -23 -23 -23 -23 -23 -23 -22 -22 -22 -23 -23 -23 -22 -22 -22 -22 -21 -21 -21 -21 -21 -21 -20 -20 -21 -20 -20 -20 -21 -21 -21 -21 -21 -21 -21 -20 -20 -18
-24 -24 -24 -24 -24 -24 -24 -24 -25 -25 -25 -24 -23 -23 -23 -24 -24 -24 -23 -22 -22 -23 -22 -22 -22 -22 -21 -21 -21 -21 -21 -21 -21 -20 -21 -21 -21 -21 -21 -21 -21 -21 -20 -20
-25 -25 -25 -25 -25 -25 -25 -25 -25 -25 -25 -25 -24 -24 -24 -25 -25 -25 -25 -24 -23 -23 -23 -23 -22 -23 -23 -22 -22 -22 -22 -21 -21 -22 -22 -22 -22 -21 -21 -21 -21 -21 -20 -21
-26 -26 -26 -26 -26 -26 -26 -25 -26 -26 -25 -25 -25 -25 -24 -24 -25 -25 -25 -25 -24 -24 -23 -23 -23 -23 -22 -22 -22 -22 -22 -21 -22 -23 -24 -23 -21 -21 -21 -21 -21 -22 -22 -20
-27 -27 -27 -26 -26 -26 -26 -26 -26 -25 -25 -25 -25 -24 -25 -25 -25 -25 -25 -24 -24 -24 -24 -24 -23 -23 -23 -22 -23 -23 -23 -24 -24 -22 -23 -22 -20 -21 -21 -21 -22 -21 -21 -21
-27 -27 -27 -27 -27 -27 -27 -27 -27 -26 -26 -26 -25 -25 -25 -25 -25 -25 -25 -25 -24 -24 -24 -24 -23 -23 -23 -23 -23 -24 -24 -24 -24 -23 -22 -21 -21 -21 -21 -21 -21 -21 -21 -21
-28 -28 -28 -27 -27 -27 -27 -27 -27 -27 -26 -26 -25 -26 -25 -25 -25 -25 -25 -25 -24 -25 -24 -24 -24 -24 -24 -24 -24 -24 -24 -24 -24 -23 -22 -21 -21 -22 -21 -21 -21 -22 -22 -22
-29 -28 -28 -28 -28 -28 -28 -28 -28 -27 -27 -26 -26 -26 -26 -25 -25 -25 -25 -25 -25 -25 -25 -24 -24 -24 -24 -24 -24 -25 -25 -24 -23 -23 -22 -21 -22 -22 -22 -22 -22 -22 -23 -23
-30 -29 -29 -29 -29 -29 -29 -29 -28 -27 -27 -26 -27 -26 -26 -25 -25 -25 -25 -25 -24 -24 -24 -25 -25 -25 -25 -24 -25 -25 -24 -23 -23 -23 -22 -22 -23 -23 -23 -23 -23 -23 -23 -23
-30 -30 -30 -30 -29 -30 -29 -29 -28 -28 -27 -27 -26 -26 -26 -25 -25 -25 -25 -25 -25 -25 -25 -25 -26 -25 -25 -25 -25 -24 -24 -23 -23 -23 -23 -23 -23 -23 -23 -23 -23 -23 -23 -23
-31 -30 -30 -30 -30 -30 -30 -29 -28 -27 -27 -27 -26 -26 -26 -25 -26 -26 -26 -25 -25 -26 -26 -25 -26 -26 -26 -25 -24 -24 -24 -24 -23 -23 -23 -23 -23 -23 -23 -23 -23 -23 -23 -23
-32 -32 -30 -29 -30 -30 -29 -29 -28 -28 -27 -26 -26 -26 -26 -26 -26 -26 -26 -26 -26 -26 -26 -26 -26 -25 -25 -25 -24 -24 -24 -23 -23 -23 -23 -23 -23 -23 -23 -23 -23 -23 -23 -23
-33 -33 -33 -30 -29 -30 -29 -29 -28 -27 -27 -27 -26 -26 -26 -26 -26 -26 -27 -26 -26 -26 -26 -26 -26 -25 -25 -25 -24 -24 -24 -24 -24 -23 -23 -23 -23 -23 -23 -23 -23 -23 -23 -23
-33 -33 -33 -30 -29 -29 -29 -28 -28 -27 -27 -26 -26 -26 -26 -26 -26 -27 -27 -26 -26 -26 -26 -26 -26 -26 -25 -25 -25 -24 -24 -24 -24 -24 -24 -23 -24 -24 -23 -23 -23 -23 -23 -23
-33 -33 -32 -29 -29 -29 -29 -29 -28 -28 -27 -27 -26 -26 -26 -26 -26 -27 -27 -27 -26 -26 -26 -26 -25 -25 -25 -25 -25 -25 -25 -24 -24 -24 -24 -23 -24 -24 -23 -23 -23 -23 -23 -23
-33 -31 -29 -29 -29 -29 -28 -28 -27 -27 -27 -26 -26 -26 -26 -26 -26 -27 -27 -27 -27 -26 -26 -26 -26 -25 -25 -25 -24 -25 -25 -25 -24 -24 -24 -23 -23 -23 -23 -23 -23 -23 -23 -23
-30 -29 -29 -29 -29 -28 -28 -28 -28 -27 -27 -27 -27 -27 -27 -27 -27 -27 -27 -27 -27 -27 -26 -26 -26 -25 -25 -25 -25 -25 -25 -25 -24 -24 -24 -24 -23 -23 -23 -23 -23 -23 -23 -23
-28 -29 -29 -29 -29 -28 -28 -28 -27 -27 -27 -27 -27 -27 -27 -27 -28 -27 -27 -27 -27 -27 -26 -26 -26 -25 -25 -25 -25 -25 -25 -24 -24 -24 -24 -24 -23 -24 -24 -24 -24 -24 -24 -24
-29 -28 -28 -28 -28 -28 -27 -27 -27 -27 -26 -26 -27 -27 -27 -27 -27 -28 -27 -27 -27 -26 -26 -26 -26 -25 -25 -25 -25 -25 -25 -24 -24 -24 -24 -24 -24 -24 -24 -24 -24 -24 -24 -24
-27 -27 -27 -27 -27 -27 -27 -27 -26 -26 -26 -27 -27 -27 -27 -27 -27 -28 -28 -27 -27 -26 -26 -26 -26 -25 -25 -25 -25 -25 -25 -24 -24 -24 -24 -24 -24 -24 -24 -25 -25 -25 -25 -25
-27 -27 -27 -27 -27 -27 -27 -26 -26 -27 -27 -27 -27 -27 -27 -27 -28 -28 -28 -27 -27 -26 -25 -26 -26 -25 -25 -25 -25 -25 -25 -24 -24 -24 -24 -24 -24 -25 -25 -25 -25 -25 -25 -25
-27 -27 -27 -27 -27 -26 -26 -27 -27 -27 -27 -27 -27 -27 -27 -28 -27 -27 -27 -27 -27 -26 -26 -25 -25 -25 -25 -25 -25 -25 -25 -25 -25 -24 -24 -25 -25 -25 -25 -25 -25 -25 -25 -25
-27 -27 -27 -27 -27 -26 -26 -27 -27 -27 -28 -28 -28 -28 -27 -27 -27 -27 -27 -27 -27 -26 -26 -26 -26 -25 -25 -25 -25 -25 -25 -25 -25 -25 -25 -25 -25 -25 -25 -25 -25 -25 -25 -25
-27 -27 -27 -27 -27 -27 -27 -27 -27 -27 -27 -28 -27 -27 -27 -27 -27 -27 -27 -27 -26 -26 -26 -26 -25 -25 -25 -25 -25 -25 -25 -25 -25 -25 -25 -25 -25 -25 -25 -25 -25 -25 -25 -25
-27 -27 -28 -28 -28 -28 -28 -28 -28 -27 -27 -27 -27 -27 -27 -27 -27 -27 -26 -26 -26 -26 -26 -26 -26 -25 -25 -25 -25 -25 -25 -25 -25 -25 -25 -25 -25 -25 -25 -25 -25 -25 -25 -25
-29 -29 -29 -29 -29 -29 -29 -28 -28 -27 -27 -27 -27 -27 -27 -27 -27 -27 -26 -26 -26 -26 -26 -26 -26 -26 -26 -26 -25 -25 -25 -25 -25 -26 -26 -26 -26 -26 -26 -26 -26 -26 -25 -25

GFSNW_500_temp_174.txt.gz
Temp
-18 -19 -19 -19 -19 -19 -19 -19 -19 -19 -19 -19 -19 -19 -19 -19 -19 -20 -20 -19 -19 -19 -20 -20 -20 -20 -20 -21 -20 -21 -21 -21 -20 -20 -20 -21 -21 -21 -21 -21 -21 -20 -20 -17
-20 -20 -19 -19 -20 -20 -20 -19 -19 -20 -20 -20 -20 -20 -20 -20 -20 -20 -21 -21 -21 -20 -20 -21 -21 -22 -22 -22 -23 -23 -22 -22 -21 -20 -20 -21 -22 -21 -22 -22 -22 -21 -21 -17
-20 -20 -20 -20 -20 -21 -22 -21 -20 -21 -21 -21 -21 -21 -21 -21 -21 -22 -22 -22 -22 -22 -21 -21 -21 -21 -23 -23 -23 -23 -22 -22 -22 -21 -21 -21 -21 -21 -21 -22 -22 -22 -20 -19
-21 -21 -21 -21 -21 -22 -23 -23 -22 -22 -22 -22 -23 -23 -23 -23 -22 -23 -23 -23 -23 -24 -22 -22 -21 -23 -25 -25 -24 -23 -24 -23 -23 -23 -22 -22 -21 -21 -22 -22 -22 -22 -20 -20
-22 -22 -22 -22 -22 -23 -24 -24 -23 -23 -24 -24 -24 -24 -23 -23 -24 -24 -24 -24 -24 -24 -24 -24 -24 -25 -25 -25 -24 -24 -24 -24 -23 -23 -23 -23 -22 -22 -22 -22 -22 -23 -20 -19
-24 -24 -24 -24 -24 -25 -25 -25 -26 -26 -25 -25 -25 -24 -24 -24 -25 -24 -25 -25 -25 -25 -25 -24 -24 -25 -25 -25 -25 -25 -25 -24 -24 -23 -23 -23 -22 -22 -23 -23 -23 -23 -22 -22
-26 -26 -26 -26 -27 -27 -26 -26 -27 -26 -25 -26 -26 -25 -25 -25 -25 -25 -25 -25 -25 -25 -25 -25 -25 -25 -25 -25 -25 -25 -25 -25 -25 -24 -24 -23 -22 -22 -23 -24 -23 -24 -23 -23
-28 -28 -27 -27 -28 -27 -27 -26 -27 -27 -26 -26 -26 -26 -26 -26 -26 -26 -25 -26 -26 -25 -25 -25 -25 -25 -25 -25 -25 -25 -25 -25 -25 -25 -24 -22 -22 -23 -24 -24 -23 -24 -23 -22
-28 -29 -29 -29 -29 -29 -28 -28 -28 -28 -27 -26 -27 -27 -26 -26 -26 -26 -26 -26 -26 -25 -25 -25 -25 -25 -25 -25 -25 -25 -25 -25 -25 -25 -24 -23 -23 -25 -25 -24 -24 -24 -23 -23
-29 -29 -29 -29 -29 -29 -29 -29 -29 -29 -27 -27 -27 -27 -27 -27 -27 -26 -26 -26 -26 -25 -25 -26 -25 -25 -26 -25 -25 -25 -25 -26 -25 -25 -24 -23 -24 -25 -25 -24 -24 -24 -24 -24
-30 -29 -29 -29 -29 -29 -29 -29 -30 -29 -28 -27 -27 -27 -27 -27 -27 -26 -26 -26 -26 -25 -26 -26 -25 -25 -26 -25 -26 -26 -26 -25 -25 -25 -24 -24 -25 -25 -24 -24 -24 -24 -24 -24
-30 -30 -30 -29 -30 -30 -29 -29 -30 -30 -29 -28 -28 -27 -27 -27 -27 -27 -27 -26 -26 -26 -26 -26 -26 -25 -25 -26 -25 -26 -25 -26 -25 -25 -25 -25 -24 -24 -24 -24 -24 -24 -24 -24
-30 -30 -30 -30 -30 -30 -30 -30 -31 -30 -29 -28 -28 -27 -28 -27 -27 -27 -27 -27 -27 -26 -26 -26 -26 -26 -26 -26 -26 -26 -26 -26 -25 -25 -25 -24 -24 -24 -24 -24 -24 -24 -24 -24
-31 -31 -32 -32 -31 -31 -30 -30 -31 -30 -30 -28 -28 -28 -28 -27 -27 -27 -27 -27 -27 -27 -27 -27 -27 -27 -26 -26 -26 -26 -26 -25 -25 -25 -25 -24 -24 -24 -24 -24 -24 -24 -24 -24
-32 -32 -32 -32 -32 -32 -31 -30 -30 -30 -30 -28 -28 -28 -28 -28 -28 -27 -27 -27 -27 -27 -27 -27 -27 -27 -27 -27 -26 -26 -26 -26 -26 -25 -25 -25 -25 -24 -24 -24 -24 -24 -24 -24
-33 -33 -33 -32 -32 -32 -31 -30 -30 -30 -30 -29 -29 -28 -28 -28 -28 -27 -27 -27 -27 -26 -27 -27 -27 -27 -27 -26 -26 -26 -26 -27 -26 -25 -25 -25 -25 -24 -24 -24 -24 -24 -24 -24
-33 -33 -33 -32 -32 -31 -31 -30 -30 -30 -30 -29 -29 -29 -28 -28 -27 -27 -27 -27 -27 -27 -27 -27 -27 -27 -27 -26 -25 -26 -27 -26 -26 -25 -25 -25 -25 -24 -24 -24 -24 -24 -24 -24
-33 -34 -34 -34 -33 -33 -31 -30 -30 -30 -30 -30 -29 -28 -28 -27 -27 -27 -27 -27 -27 -27 -27 -27 -27 -27 -27 -25 -26 -27 -26 -26 -26 -25 -25 -25 -25 -25 -24 -24 -24 -24 -24 -24
-34 -34 -34 -34 -34 -33 -33 -32 -30 -30 -30 -30 -29 -28 -28 -28 -27 -27 -27 -27 -27 -26 -26 -26 -27 -26 -25 -26 -27 -27 -26 -26 -26 -26 -25 -25 -25 -25 -24 -24 -24 -24 -24 -24
-34 -34 -34 -34 -34 -34 -33 -31 -30 -30 -30 -29 -29 -29 -28 -28 -27 -27 -28 -27 -27 -26 -26 -27 -26 -26 -26 -27 -27 -27 -26 -26 -26 -26 -25 -25 -25 -25 -25 -25 -25 -24 -24 -24
-34 -33 -33 -33 -32 -31 -30 -30 -30 -29 -29 -28 -28 -28 -28 -28 -28 -28 -28 -27 -27 -27 -27 -27 -26 -26 -27 -27 -27 -26 -26 -25 -25 -25 -25 -25 -25 -25 -25 -25 -25 -24 -24 -23
-33 -33 -32 -31 -31 -30 -30 -29 -29 -29 -29 -28 -28 -28 -28 -28 -28 -28 -28 -28 -27 -27 -27 -27 -27 -26 -27 -27 -26 -26 -26 -26 -26 -26 -26 -26 -25 -25 -25 -25 -24 -24 -24 -24
-31 -30 -30 -30 -30 -30 -30 -30 -29 -29 -29 -28 -28 -28 -28 -28 -28 -28 -28 -27 -27 -27 -27 -27 -27 -26 -26 -26 -26 -26 -26 -26 -26 -26 -25 -25 -25 -25 -25 -25 -25 -25 -25 -25
-30 -30 -30 -30 -30 -29 -29 -29 -28 -28 -28 -28 -27 -27 -27 -28 -28 -27 -27 -28 -28 -27 -27 -27 -26 -26 -26 -26 -26 -26 -26 -26 -26 -26 -25 -25 -25 -25 -25 -25 -25 -25 -25 -25
-30 -29 -29 -29 -29 -29 -29 -28 -28 -28 -27 -27 -27 -28 -28 -28 -28 -28 -28 -28 -27 -27 -27 -27 -27 -27 -26 -26 -26 -26 -26 -26 -26 -26 -26 -26 -26 -26 -26 -26 -26 -26 -26 -26
-30 -30 -29 -29 -29 -29 -29 -28 -28 -28 -28 -28 -27 -28 -28 -28 -28 -28 -28 -28 -28 -28 -27 -27 -27 -27 -26 -26 -26 -26 -26 -26 -26 -26 -26 -26 -26 -26 -26 -25 -26 -26 -26 -26
-29 -29 -29 -29 -29 -29 -29 -28 -28 -28 -28 -28 -28 -28 -28 -28 -28 -28 -28 -28 -28 -28 -27 -27 -27 -27 -27 -26 -26 -26 -26 -26 -26 -26 -26 -26 -26 -26 -26 -26 -26 -26 -26 -26